User: anonymous   Login
Location: Newark
(25.4297°S, 49.2719°W)
Time: 17:45:40
(UTC+00:00)
Language:

Hubble Space Telescope - Orbit

View from above orbital plane
View from above orbital plane
View from above satellite
View from above satellite

Ground track
Ground track

The orbit data is extracted from the following two-line orbital elements,

1 20580U 90037B   21206.60790260  .00000636  00000-0  27467-4 0  9990
2 20580  28.4689 172.6141 0002938 112.9423  50.1625 15.09688724516786
Epoch (UTC): 25 July 2021 14:35:22
Eccentricity: 0.0002938
inclination: 28.4689°
perigee height: 535 km
apogee height: 539 km
right ascension of ascending node: 172.6141°
argument of perigee: 112.9423°
revolutions per day: 15.09688724
mean anomaly at epoch: 50.1625°
orbit number at epoch: 51678

The dashed part of the orbit path shows where the satellite is in the earth's shadow,  

DLR